TimeIST,TemperatureF,Dew PointF,Humidity,Sea Level PressureIn,VisibilityMPH,Wind Direction,Wind SpeedMPH,Gust SpeedMPH,PrecipitationIn,Events,Conditions,WindDirDegrees,DateUTC
12:10 AM,87.8,44.6,22,29.65,3.1,Calm,Calm,-,N/A,,Haze,0,2013-05-17 18:40:00
1:10 AM,87.8,44.6,22,29.62,3.1,Calm,Calm,-,N/A,,Haze,0,2013-05-17 19:40:00
2:10 AM,89.6,44.6,21,29.62,3.1,Calm,Calm,-,N/A,,Haze,0,2013-05-17 20:40:00
2:30 AM,82,60,37,29.57,2,WNW,3.5,,,,Haze,290,2013-05-17 21:00:00
3:10 AM,86.0,44.6,23,29.62,3.1,NW,3.5,-,N/A,,Haze,310,2013-05-17 21:40:00
4:10 AM,84.2,44.6,25,29.62,3.1,WNW,2.3,-,N/A,,Haze,290,2013-05-17 22:40:00
5:10 AM,84.2,46.4,27,29.62,3.1,North,2.3,-,N/A,,Haze,350,2013-05-17 23:40:00
5:30 AM,87,59,29,29.58,2,NW,5.8,,,,Haze,320,2013-05-18 00:00:00
6:10 AM,86.0,44.6,23,29.65,3.1,WNW,4.6,-,N/A,,Haze,290,2013-05-18 00:40:00
7:10 AM,86.0,48.2,27,29.62,3.1,SW,5.8,-,N/A,,Haze,230,2013-05-18 01:40:00
7:40 AM,89.6,51.8,27,29.68,3.1,NW,2.3,-,N/A,,Haze,320,2013-05-18 02:10:00
8:10 AM,93.2,53.6,26,29.71,3.1,NW,8.1,-,N/A,,Haze,320,2013-05-18 02:40:00
8:30 AM,100,67,25,29.63,2,NNW,6.9,,,,Scattered Clouds,340,2013-05-18 03:00:00
8:40 AM,96.8,55.4,25,29.71,3.7,NW,10.4,-,N/A,,Partly Cloudy,320,2013-05-18 03:10:00
9:10 AM,98.6,55.4,24,29.71,3.7,NNW,9.2,-,N/A,,Partly Cloudy,330,2013-05-18 03:40:00
9:40 AM,100.4,55.4,22,29.71,3.7,NNW,8.1,-,N/A,,Partly Cloudy,340,2013-05-18 04:10:00
10:10 AM,104.0,50.0,16,29.71,3.7,NNW,8.1,-,N/A,,Partly Cloudy,340,2013-05-18 04:40:00
10:40 AM,105.8,51.8,17,29.71,3.7,NNW,9.2,-,N/A,,Partly Cloudy,330,2013-05-18 05:10:00
11:10 AM,109.4,50.0,14,29.68,3.7,NNE,6.9,-,N/A,,Unknown,20,2013-05-18 05:40:00
11:30 AM,112,66,15,29.58,2,North,6.9,,,,Scattered Clouds,0,2013-05-18 06:00:00
11:40 AM,109.4,48.2,13,29.68,3.7,North,5.8,-,N/A,,Partly Cloudy,10,2013-05-18 06:10:00
12:10 PM,111.2,46.4,12,29.65,3.7,NE,4.6,-,N/A,,Partly Cloudy,40,2013-05-18 06:40:00
12:40 PM,113.0,48.2,12,29.65,3.7,West,3.5,-,N/A,,Partly Cloudy,280,2013-05-18 07:10:00
1:10 PM,113.0,46.4,11,29.62,3.7,East,4.6,-,N/A,,Partly Cloudy,80,2013-05-18 07:40:00
2:10 PM,114.8,44.6,10,29.59,3.7,WNW,5.8,-,N/A,,Scattered Clouds,300,2013-05-18 08:40:00
2:30 PM,114,65,14,29.48,2,North,5.8,,,,Partly Cloudy,0,2013-05-18 09:00:00
3:10 PM,114.8,41.0,8,29.56,3.7,NNW,4.6,-,N/A,,Scattered Clouds,340,2013-05-18 09:40:00
3:40 PM,113.0,44.6,10,29.56,3.7,NNE,3.5,-,N/A,,Scattered Clouds,30,2013-05-18 10:10:00
4:10 PM,113.0,44.6,10,29.56,3.7,NW,10.4,-,N/A,,Scattered Clouds,310,2013-05-18 10:40:00
4:40 PM,113.0,44.6,10,29.53,3.7,North,4.6,-,N/A,,Scattered Clouds,350,2013-05-18 11:10:00
5:10 PM,113.0,44.6,10,29.56,3.7,NNW,4.6,-,N/A,,Scattered Clouds,330,2013-05-18 11:40:00
5:30 PM,113,64,14,29.45,2,NNE,6.9,,,,Scattered Clouds,20,2013-05-18 12:00:00
5:40 PM,111.2,44.6,11,29.56,3.7,North,4.6,-,N/A,,Scattered Clouds,10,2013-05-18 12:10:00
6:10 PM,111.2,44.6,11,29.56,3.7,East,2.3,-,N/A,,Scattered Clouds,80,2013-05-18 12:40:00
6:40 PM,107.6,44.6,12,29.56,3.7,NNW,4.6,-,N/A,,Scattered Clouds,340,2013-05-18 13:10:00
7:10 PM,104.0,44.6,13,29.59,3.7,Calm,Calm,-,N/A,,Unknown,0,2013-05-18 13:40:00
7:40 PM,100.4,44.6,15,29.59,3.7,Calm,Calm,-,N/A,,Partly Cloudy,0,2013-05-18 14:10:00
8:10 PM,100.4,53.6,21,29.59,3.7,NE,3.5,-,N/A,,Partly Cloudy,40,2013-05-18 14:40:00
8:30 PM,96,67,30,,2,WSW,6.9,,,,Partly Cloudy,250,2013-05-18 15:00:00
9:10 PM,100.4,46.4,16,29.62,3.7,NW,5.8,-,N/A,,Scattered Clouds,310,2013-05-18 15:40:00
9:40 PM,98.6,46.4,17,29.62,3.7,NW,2.3,-,N/A,,Scattered Clouds,320,2013-05-18 16:10:00
10:10 PM,96.8,46.4,18,29.62,3.7,Calm,Calm,-,N/A,,Scattered Clouds,0,2013-05-18 16:40:00
10:40 PM,95.0,44.6,18,29.62,3.7,NNW,2.3,-,N/A,,Scattered Clouds,330,2013-05-18 17:10:00
11:10 PM,93.2,44.6,19,29.62,3.7,NW,4.6,-,N/A,,Scattered Clouds,310,2013-05-18 17:40:00
11:30 PM,91,61,27,29.57,2,NNW,2.3,,,,Partly Cloudy,340,2013-05-18 18:00:00